COSMOS 2491 DEB, 57552

Orbit data source: Space-Track

COSMOS 2491 DEB, 57552 is space debris in LEO originally from a launch on Wed, 25 Dec 2013 UTC launched from the Plesetsk Missile And Space Complex (PKMTR). Debris objects in space refer to the collection of defunct objects orbiting the Earth. Examples of debris include non-operational satellites, rocket bodies, and fragments generated from explosions, collisions, or faulty payload assembly.

Loading next visibility...
Identifier
57552, 2013-076AP
Orbit
LEO
Country
Flag of CISCIS
Related business
Manufacturer
TsNIIKhM
Mission
Spacecraft
Bus & Motor
Unknown
Mass
Unknown
Launch date (UTC)
2013-12-25 (13 years ago)
Launch vehicle
Unknown
Launch site
Plesetsk Missile And Space Complex (PKMTR)
Object type
Payload
Rocket body
Debris
Shape & HBR
Unknown shape, 0.1 m
Radar Cross Section
Small (<0.1 m²)

Expand to show TLE details & history
Last TLE update: 4 days ago

TLE from 4 days ago
0 COSMOS 2491 DEB
1 57552U 13076AP  26174.50824160  .00004602  00000-0  19937-1 0  9999
2 57552  82.4220  93.8364 0195993  76.9730 285.3169 12.75134575145290
Epoch: 2026-06-23T12:11Z
TLE epoch observation values (Epoch: 2026-06-23T12:11:52.074Z)
Latitude
0.00007°
Longitude
-0.80937°
Altitude
1,326.551 km
Speed
7.211 km/s
True Right ascension
06h 15m 20s
True Declination
0° 00' 00"
Sunlit
Object was in daylight at epoch
Visualization orbit readout
Latitude
Unknown
Longitude
Unknown
Altitude
Unknown
Speed
Unknown
Apparent Right ascension
Unknown
Apparent Declination
Unknown
Sunlit
N/A
Visualization observer readout
Local Sidereal Time
05:57:10
Azimuth
Unknown
Elevation
Unknown
Doppler factor
Unknown
Orbital elements
Apogee altitude
1,510.032 km
Perigee altitude
1,206.771 km
Semi-major axis
7,736.538 km
Eccentricity
0.0196
Inclination
82.422°
RAAN
93.8364°
Arg. of periapsis
76.973°
True anomaly
283.13718°
Mean anomaly
285.3169°
Eccentric anomaly
284.22839°
Mean motion
3.1895 °/min
Orbital period
112.87 mins
BSTAR
0.019937
Loading maneuver chart data...
Computing Atmospheric mass density...
Loading historical data...
Loading historical data...
Loading historical data...
Loading historical data...
Loading historical data...
Loading historical data...
Loading historical data...

Documentation

Showing up to 5 results
|